Location: Unspecified
(0.0000°N, 0.0000°E)
Time: 03:26:57
(UTC+02:00)

Cosmos 1812 Rocket - Visible Passes

Search period start: 29 March 2017 00:00
Search period end: 08 April 2017 00:00
Orbit: 605 x 633 km, 82.5° (Epoch: 27 March)

Date Brightness Start Highest point End Pass type
(mag) Time Alt. Az. Time Alt. Az. Time Alt. Az.
30 Mar 5.4 20:20:27 10° SSW 20:24:35 38° W 20:28:40 10° NNW visible
31 Mar 7.2 06:53:58 10° ENE 06:55:31 12° E 06:57:06 10° ESE visible
31 Mar 6.9 20:39:03 10° SW 20:41:55 17° W 20:44:46 10° NW visible
01 Apr 6.0 07:09:12 10° NNE 07:12:52 27° E 07:16:33 10° SE visible
02 Apr 4.1 07:25:54 10° N 07:30:11 63° E 07:34:33 10° SSE visible
04 Apr 6.9 06:25:21 10° ENE 06:27:20 13° E 06:29:18 10° ESE visible
05 Apr 5.7 06:40:53 10° NNE 06:44:39 29° E 06:48:28 10° SSE visible
06 Apr 3.9 06:57:39 10° N 07:01:59 69° E 07:06:23 10° S visible
07 Apr 3.7 07:15:07 10° NNW 07:19:20 49° W 07:23:36 10° S visible
